Wind_Speed
68 69 69 68 67 66 64 65 61 64 60 58 57 59 63 60 63 64 61 59 56 55 59 59 59 59 61 65 69 72 76 80 84 89 93 97 99 98 97 101 106 113 115 118
62 65 65 67 65 63 64 64 62 63 61 58 57 60 61 64 63 62 57 57 60 60 59 59 60 63 67 70 73 77 82 87 90 93 96 94 96 99 102 106 111 115 120 123
51 54 55 54 56 56 59 59 59 58 59 58 59 61 64 65 63 61 63 65 65 60 59 60 64 67 72 75 80 85 88 91 93 92 93 98 99 101 105 110 115 122 126 127
44 43 42 48 50 51 51 53 53 57 60 61 61 63 66 66 64 66 63 60 59 60 63 65 68 73 77 82 86 89 92 92 91 91 95 97 103 108 112 116 122 127 129 133
42 47 49 50 51 53 55 56 58 60 61 64 64 65 62 63 64 64 64 63 62 63 65 69 74 79 83 87 90 92 89 89 90 92 98 105 113 118 121 126 131 131 129 135
48 51 53 55 55 56 59 61 66 67 66 60 59 60 56 52 49 52 55 58 61 66 71 75 80 84 87 89 90 88 89 92 97 100 105 114 118 121 127 132 130 127 129 131
30 32 38 42 45 45 48 50 52 54 52 53 53 52 51 51 51 55 59 63 68 72 76 80 84 86 87 86 87 90 94 99 103 110 113 118 126 129 131 128 128 128 125 121
29 30 32 34 34 36 40 41 44 45 45 45 46 48 50 53 57 62 66 70 74 77 80 82 83 82 84 87 90 95 100 105 109 114 121 121 126 129 131 127 126 123 116 110
37 35 35 37 37 42 43 42 43 45 48 49 50 54 57 61 64 68 72 75 77 77 79 77 80 83 87 91 96 101 106 109 113 118 123 126 129 130 127 127 122 114 107 103
37 39 40 39 40 41 44 47 49 50 50 52 56 61 64 68 71 73 73 72 72 73 76 80 83 87 92 98 103 105 108 110 118 122 126 128 130 128 126 122 115 107 100 98
48 47 46 48 48 50 52 53 55 56 58 60 63 66 68 68 70 68 67 70 74 78 80 85 90 93 97 101 103 106 110 117 121 126 126 129 129 125 121 117 109 102 95 92
48 51 52 53 53 55 56 57 58 60 63 64 64 64 67 63 63 67 72 76 77 81 87 92 96 99 102 105 109 113 115 120 125 127 130 130 122 116 116 109 106 102 97 92
52 56 54 53 53 53 53 55 58 60 61 62 60 58 61 65 69 73 76 81 86 90 93 97 101 104 106 111 113 116 121 124 127 130 131 123 116 110 101 102 101 97 96 92
47 48 50 50 50 51 51 49 48 49 52 55 60 65 68 71 75 79 84 88 92 95 98 102 107 110 113 114 117 123 126 129 131 129 120 113 108 102 99 93 87 89 93 90
37 39 42 45 47 47 47 48 51 55 59 63 66 70 73 77 81 85 89 93 97 100 104 109 113 113 116 120 125 128 131 131 126 120 114 107 101 96 92 87 86 86 85 84
34 37 41 46 49 51 53 56 58 61 64 68 71 74 77 82 87 91 96 100 105 107 108 111 114 117 122 126 131 133 132 124 120 113 108 99 95 90 85 84 84 84 82 79
43 46 49 51 53 55 56 60 64 68 71 75 78 82 86 91 95 100 103 107 108 111 113 116 120 125 128 132 132 129 122 118 110 104 97 94 88 83 81 79 79 80 79 75
49 52 55 57 58 62 65 67 71 75 79 84 88 91 95 99 104 106 108 111 112 115 119 122 126 129 133 130 126 121 115 108 101 96 92 86 83 80 77 75 75 75 74 70
58 61 62 64 66 68 72 75 79 83 87 92 96 100 103 105 107 109 112 115 118 121 127 130 133 134 130 126 122 116 108 100 96 91 84 81 78 75 73 72 72 71 68 63
65 66 68 71 74 78 82 85 89 92 96 99 102 104 107 110 112 114 117 122 126 129 132 135 134 129 124 119 113 105 97 92 88 83 80 77 73 70 70 70 68 66 62 55
75 77 79 82 85 88 91 93 96 99 101 104 108 111 113 115 118 121 126 130 134 134 135 131 124 117 114 107 101 94 90 85 81 80 76 73 70 69 68 67 64 61 54 48
83 85 88 91 94 97 98 100 102 105 107 110 113 115 119 123 127 130 133 133 133 129 125 119 114 111 103 96 90 87 83 81 79 76 73 69 67 66 64 62 59 53 45 42
91 93 96 98 101 103 105 105 106 108 113 117 120 123 127 130 133 135 133 126 120 116 113 108 103 97 90 87 84 82 80 78 75 72 69 67 65 62 59 57 51 44 39 36
98 100 102 103 104 105 106 109 113 117 121 123 127 131 133 135 130 120 115 111 109 105 101 96 90 87 85 82 80 77 75 73 70 68 66 64 61 56 54 49 43 39 34 29
103 104 105 105 107 111 113 117 121 124 127 131 134 134 128 120 114 110 105 103 100 96 93 88 85 83 81 78 76 73 70 68 66 65 63 60 54 51 47 41 38 33 27 21
108 108 111 113 116 118 121 125 128 130 132 131 126 119 111 107 103 99 98 96 93 90 87 84 81 79 76 74 71 68 66 65 63 61 56 52 48 45 39 35 30 24 18 13
115 117 119 121 123 126 127 127 126 124 120 116 110 104 101 98 97 95 93 91 88 85 82 79 77 74 71 68 65 63 63 61 58 54 50 47 42 37 33 28 22 16 12 5
Wind_Direction
221 226 229 233 237 241 242 243 246 248 252 254 258 257 255 264 268 273 282 271 271 274 275 278 281 285 287 288 290 291 292 292 294 295 296 297 299 298 297 299 301 302 303 303
222 227 231 234 237 239 242 244 244 249 252 255 255 256 259 265 269 274 271 266 267 272 275 279 286 289 291 291 292 293 293 294 295 296 300 299 297 297 300 302 303 305 306 305
222 225 228 233 235 237 241 243 246 249 251 252 253 258 261 265 269 267 268 266 267 274 284 287 289 290 291 291 292 292 294 295 298 299 298 300 302 304 304 306 308 308 309 305
221 223 227 231 233 237 240 244 248 250 253 256 256 259 262 266 266 266 264 266 275 283 283 287 288 289 291 291 293 294 297 299 298 298 302 305 307 306 308 310 310 309 308 307
232 229 228 232 237 239 241 243 244 248 253 257 259 261 262 263 262 261 264 273 279 282 286 288 289 291 292 293 294 298 298 296 298 304 307 308 306 307 308 310 311 309 308 307
237 239 241 243 242 244 248 250 253 255 257 255 257 259 265 267 271 274 277 281 284 286 287 290 291 291 293 295 297 296 297 302 305 307 306 306 306 309 310 311 310 308 307 308
227 232 235 238 241 243 244 242 246 248 251 254 258 263 267 271 276 279 282 284 285 288 289 290 292 294 296 296 298 300 302 303 305 305 306 307 307 309 312 311 310 309 310 308
216 218 222 231 239 241 243 245 249 251 255 259 264 269 274 277 278 279 282 285 287 289 291 292 293 294 296 299 301 301 302 302 304 304 307 309 311 313 313 311 310 310 309 309
230 227 226 231 235 239 239 244 250 256 259 264 269 272 274 277 279 282 284 287 289 290 290 291 292 295 299 299 299 300 302 304 305 308 309 311 314 314 312 311 311 309 308 309
232 235 237 238 239 242 246 250 255 260 265 268 271 273 275 277 281 284 288 289 288 288 289 292 296 297 298 298 300 301 303 306 308 310 312 314 315 314 313 312 311 310 311 311
243 244 244 245 247 250 253 257 261 264 266 268 271 275 279 282 285 286 285 285 286 289 294 296 297 297 298 299 301 304 306 307 310 311 314 315 315 314 313 312 311 310 311 310
244 246 248 251 253 256 259 263 266 268 270 272 275 280 282 283 283 283 284 288 292 294 296 296 297 298 300 302 304 305 307 308 311 313 315 314 312 314 314 313 312 313 312 311
251 248 249 251 255 261 266 267 268 270 273 277 280 280 280 281 283 285 288 291 292 294 295 297 299 302 304 305 307 307 309 310 313 315 314 313 313 313 313 314 314 313 312 313
250 253 252 252 257 264 264 267 271 274 275 276 278 280 282 283 284 287 290 292 293 296 298 301 303 304 305 306 308 309 310 312 314 313 313 313 313 313 314 314 312 311 311 314
251 250 251 254 256 260 265 268 270 272 275 277 281 284 285 286 288 290 292 294 296 300 302 303 303 305 305 308 308 310 312 313 313 314 313 313 314 315 313 313 312 310 311 315
251 254 256 257 260 263 266 270 274 278 281 283 285 287 288 289 290 292 296 298 300 301 302 303 304 305 307 309 311 312 312 312 313 313 314 315 314 313 313 313 311 312 315 317
257 260 263 264 266 270 275 278 281 284 286 288 289 289 290 291 293 295 296 298 299 301 303 304 306 308 311 311 311 312 312 313 312 313 314 313 313 314 313 312 312 313 315 317
262 266 270 272 276 278 281 284 285 286 287 288 288 290 291 292 293 296 297 298 301 303 305 307 309 311 311 311 311 312 313 312 312 313 313 314 314 314 312 312 312 314 315 316
269 271 274 276 278 280 281 282 283 284 286 287 289 290 292 293 295 297 299 302 303 306 307 309 310 311 311 311 312 312 312 313 313 313 314 315 314 313 313 313 315 315 315 319
272 274 276 278 279 281 282 283 284 286 287 289 290 292 295 296 298 300 302 304 305 307 308 309 310 310 310 310 311 312 312 312 313 313 314 315 313 313 313 314 314 314 317 319
274 276 278 280 281 282 283 285 286 288 291 293 294 295 296 298 299 301 303 304 307 307 308 308 308 309 310 310 310 310 310 312 313 314 314 313 315 315 315 314 313 315 319 314
276 278 280 281 283 284 286 288 290 291 292 294 294 295 298 300 302 303 304 305 306 306 306 306 308 308 309 309 309 310 312 313 314 314 314 315 315 315 314 313 314 317 315 312
276 279 281 282 284 286 288 290 292 293 293 294 296 299 299 300 301 303 305 305 305 305 306 307 308 308 308 309 311 312 314 314 314 314 314 315 315 315 313 313 316 313 312 310
278 280 281 283 287 288 290 291 291 292 293 296 297 298 299 301 303 304 304 305 304 305 306 308 308 309 309 311 313 314 314 314 314 315 314 314 314 314 312 315 313 313 311 307
279 281 283 285 287 288 289 290 291 293 294 296 298 299 301 302 303 304 304 304 306 308 309 310 310 310 311 313 314 314 314 314 315 315 314 315 315 313 314 314 314 313 310 305
281 283 284 285 286 288 289 290 291 293 295 297 298 299 300 301 302 303 305 306 308 309 309 309 310 310 312 313 314 314 314 314 314 314 314 315 314 314 315 316 316 314 307 303
281 282 283 285 286 288 289 292 294 295 296 297 299 300 301 303 304 306 307 308 309 309 309 309 310 311 313 314 315 315 314 314 315 314 315 314 315 316 317 319 317 308 306 273
Height
10593 10600 10608 10614 10621 10628 10634 10635 10643 10639 10647 10651 10651 10648 10646 10648 10648 10648 10647 10645 10643 10640 10636 10633 10630 10626 10622 10616 10611 10605 10598 10590 10583 10574 10564 10554 10542 10530 10519 10506 10492 10476 10461 10442
10587 10593 10601 10606 10613 10619 10623 10626 10630 10631 10637 10640 10639 10636 10638 10638 10638 10637 10634 10631 10629 10626 10624 10620 10617 10611 10605 10600 10593 10587 10579 10571 10563 10553 10541 10530 10518 10506 10494 10479 10464 10447 10428 10409
10581 10587 10594 10602 10604 10609 10612 10616 10621 10623 10622 10626 10627 10630 10628 10627 10625 10622 10621 10619 10616 10614 10610 10607 10602 10596 10590 10584 10576 10568 10559 10551 10542 10531 10518 10506 10494 10481 10468 10453 10436 10417 10396 10375
10574 10581 10588 10587 10595 10600 10604 10607 10610 10610 10612 10615 10617 10617 10616 10614 10613 10611 10609 10606 10603 10601 10597 10592 10587 10580 10574 10566 10556 10548 10538 10530 10520 10509 10497 10482 10469 10455 10440 10425 10407 10388 10365 10338
10571 10577 10579 10582 10587 10589 10592 10595 10597 10597 10599 10602 10602 10603 10603 10602 10601 10599 10597 10595 10592 10587 10582 10576 10570 10563 10554 10546 10537 10527 10518 10509 10498 10485 10471 10457 10443 10429 10413 10396 10376 10352 10326 10302
10562 10567 10572 10574 10577 10580 10582 10587 10584 10587 10589 10590 10590 10591 10592 10591 10590 10587 10585 10581 10578 10572 10566 10559 10552 10543 10536 10527 10517 10506 10496 10484 10471 10458 10446 10434 10419 10402 10382 10362 10342 10318 10296 10269
10555 10559 10562 10563 10567 10571 10574 10574 10575 10578 10579 10579 10580 10579 10579 10579 10577 10574 10571 10568 10562 10555 10548 10540 10533 10524 10517 10506 10495 10483 10472 10461 10449 10436 10424 10408 10392 10371 10350 10329 10307 10285 10267 10241
10550 10553 10556 10558 10562 10564 10566 10566 10567 10568 10569 10569 10568 10567 10567 10566 10563 10560 10556 10551 10545 10538 10530 10522 10515 10506 10497 10487 10475 10465 10453 10441 10428 10414 10398 10380 10361 10338 10315 10292 10274 10253 10235 10215
10545 10548 10549 10551 10553 10555 10557 10558 10559 10559 10558 10558 10558 10557 10554 10552 10549 10544 10540 10534 10527 10519 10512 10505 10497 10488 10478 10468 10457 10445 10431 10419 10406 10388 10369 10349 10328 10306 10284 10260 10242 10225 10208 10192
10536 10536 10539 10541 10543 10545 10546 10547 10547 10547 10548 10546 10545 10543 10541 10538 10534 10529 10523 10516 10509 10501 10494 10486 10478 10470 10462 10450 10437 10425 10412 10396 10380 10362 10343 10321 10298 10274 10254 10231 10214 10196 10183 10167
10527 10528 10530 10531 10533 10535 10535 10536 10536 10537 10536 10534 10532 10530 10527 10523 10518 10511 10505 10499 10491 10484 10477 10469 10459 10451 10443 10431 10418 10404 10388 10371 10354 10336 10315 10295 10271 10247 10224 10201 10182 10171 10160 10146
10516 10518 10520 10522 10523 10523 10524 10524 10525 10524 10523 10521 10519 10516 10512 10506 10501 10495 10487 10480 10474 10467 10460 10450 10439 10428 10418 10406 10393 10379 10363 10345 10327 10308 10287 10265 10247 10229 10198 10175 10155 10136 10124 10116
10506 10507 10509 10511 10512 10512 10513 10512 10510 10509 10509 10508 10504 10500 10496 10490 10484 10477 10471 10464 10457 10449 10440 10428 10415 10404 10394 10380 10366 10349 10334 10317 10299 10278 10257 10237 10217 10199 10185 10158 10130 10113 10097 10088
10493 10495 10497 10500 10501 10501 10500 10499 10499 10498 10496 10493 10489 10485 10480 10474 10468 10462 10455 10445 10436 10427 10418 10405 10390 10379 10367 10353 10339 10320 10303 10284 10267 10247 10225 10207 10188 10170 10153 10138 10124 10101 10078 10067
10484 10485 10487 10489 10490 10490 10490 10488 10487 10484 10481 10478 10474 10469 10464 10458 10451 10443 10433 10423 10413 10404 10393 10379 10364 10352 10339 10327 10310 10290 10271 10252 10234 10214 10195 10178 10162 10146 10130 10115 10099 10083 10070 10052
10477 10478 10479 10479 10478 10477 10476 10475 10473 10470 10466 10462 10457 10451 10445 10437 10429 10420 10410 10399 10388 10377 10367 10354 10340 10328 10313 10296 10276 10256 10237 10218 10201 10185 10170 10154 10138 10125 10110 10095 10078 10062 10049 10040
10467 10467 10466 10466 10466 10465 10464 10462 10458 10453 10449 10443 10437 10430 10423 10415 10405 10395 10386 10374 10364 10353 10341 10328 10314 10296 10280 10262 10245 10225 10208 10192 10173 10158 10145 10132 10118 10105 10091 10077 10060 10044 10032 10022
10455 10453 10452 10452 10452 10450 10448 10444 10440 10434 10429 10422 10415 10408 10399 10390 10380 10370 10359 10348 10339 10325 10311 10296 10282 10266 10249 10231 10213 10195 10181 10165 10150 10136 10123 10110 10097 10085 10071 10058 10043 10031 10017 10007
10439 10438 10438 10437 10435 10434 10430 10425 10419 10414 10409 10401 10394 10385 10375 10366 10355 10345 10333 10320 10309 10297 10277 10261 10246 10231 10215 10197 10181 10165 10152 10138 10125 10112 10101 10090 10077 10064 10051 10038 10026 10014 10004 9997
10424 10423 10422 10420 10417 10413 10409 10405 10399 10394 10386 10377 10368 10359 10348 10339 10329 10318 10306 10291 10277 10266 10250 10232 10217 10202 10187 10170 10153 10140 10128 10116 10104 10092 10080 10069 10058 10046 10032 10021 10011 10000 9993 9985
10405 10403 10402 10399 10394 10389 10385 10379 10374 10368 10360 10351 10341 10330 10320 10312 10301 10289 10275 10262 10244 10232 10219 10201 10188 10174 10159 10145 10131 10119 10107 10095 10083 10072 10060 10049 10038 10025 10014 10004 9994 9987 9982 9972
10383 10381 10378 10374 10368 10363 10360 10355 10349 10341 10333 10324 10313 10302 10291 10279 10268 10255 10243 10233 10218 10204 10188 10172 10159 10146 10134 10120 10108 10097 10085 10073 10062 10050 10038 10029 10019 10009 9999 9989 9981 9977 9970 9962
10363 10359 10356 10351 10345 10339 10335 10330 10322 10313 10302 10292 10282 10272 10262 10251 10238 10227 10213 10196 10185 10172 10159 10145 10133 10122 10111 10098 10086 10074 10062 10050 10040 10030 10020 10011 10002 9993 9984 9976 9971 9965 9960 9955
10340 10336 10332 10327 10323 10317 10310 10302 10294 10284 10274 10265 10255 10245 10234 10222 10209 10197 10186 10174 10160 10148 10135 10123 10110 10099 10087 10076 10066 10055 10043 10031 10022 10012 10002 9995 9988 9979 9971 9966 9960 9955 9952 9949
10314 10311 10308 10304 10298 10291 10284 10275 10265 10255 10245 10236 10225 10214 10203 10193 10182 10169 10157 10144 10132 10120 10108 10096 10086 10074 10064 10055 10044 10034 10023 10014 10005 9996 9987 9980 9973 9966 9961 9956 9951 9948 9946 9944
10289 10287 10282 10276 10269 10262 10254 10244 10235 10226 10217 10206 10196 10185 10175 10165 10154 10144 10132 10121 10110 10098 10086 10075 10064 10055 10046 10036 10026 10016 10006 9997 9990 9982 9976 9969 9962 9955 9951 9948 9944 9942 9940 9940
10265 10260 10254 10248 10241 10231 10222 10215 10207 10198 10187 10176 10167 10158 10148 10138 10128 10117 10106 10095 10084 10074 10064 10054 10045 10036 10028 10019 10009 9999 9991 9984 9978 9969 9962 9956 9952 9947 9943 9941 9939 9936 9937 9938